When you browse on this site, cookies collect data to enhance your experience and personalize the content and advertising you see.
Visit our Privacy Policy to learn more. By continuing to use the site, you agree to this use of cookies and data.
  • In Hungary
  • List of Countries
  • For 7 days
  • Water Temperature
  • Weather Map
  • News
  • Weather Widgets
  • user-avatar
    Login

    Hourly Weather Yagodnyy

    Today, 19 January, Sunday

    Time Temperature Precipitation Wind Pressure Humidity
    00:00 -8°C° 0 mm 2 mps 740 mmHg 92%
    01:00 -8°C° 0 mm 1 mps 741 mmHg 93%
    02:00 -9°C° 0 mm 1 mps 741 mmHg 93%
    03:00 -9°C° 0 mm 1 mps 742 mmHg 93%
    04:00 -10°C° 0 mm 0 mps 743 mmHg 96%
    05:00 -10°C° 0 mm 1 mps 743 mmHg 95%
    06:00 -11°C° 0 mm 1 mps 743 mmHg 95%
    07:00 -11°C° 0 mm 1 mps 743 mmHg 94%
    08:00 -11°C° 0 mm 1 mps 743 mmHg 92%
    09:00 -10°C° 0 mm 1 mps 743 mmHg 89%
    10:00 -10°C° 0 mm 1 mps 744 mmHg 86%
    11:00 -9°C° 0 mm 1 mps 744 mmHg 84%
    12:00 -8°C° 0 mm 1 mps 743 mmHg 83%
    13:00 -7°C° 0 mm 1 mps 743 mmHg 81%
    14:00 -7°C° 0 mm 1 mps 743 mmHg 85%
    15:00 -7°C° 0 mm 1 mps 743 mmHg 89%
    16:00 -7°C° 0 mm 1 mps 742 mmHg 93%
    17:00 -8°C° 0.3 mm 2 mps 742 mmHg 94%
    18:00 -7°C° 0.3 mm 2 mps 742 mmHg 94%
    19:00 -7°C° 0.3 mm 2 mps 741 mmHg 95%
    20:00 -7°C° 0.4 mm 2 mps 741 mmHg 95%
    21:00 -6°C° 0.4 mm 2 mps 741 mmHg 95%
    22:00 -6°C° 0.4 mm 2 mps 740 mmHg 96%
    23:00 -6°C° 0.3 mm 2 mps 740 mmHg 96%

    Tomorrow, 20 January, Monday

    Time Temperature Precipitation Wind Pressure Humidity
    00:00 -6°C° 0.3 mm 2 mps 739 mmHg 96%
    01:00 -5°C° 0.3 mm 2 mps 739 mmHg 96%
    02:00 -5°C° 0.2 mm 2 mps 738 mmHg 96%
    03:00 -5°C° 0.2 mm 2 mps 738 mmHg 96%
    04:00 -3°C° 0.2 mm 1 mps 738 mmHg 96%
    05:00 -3°C° 0.3 mm 1 mps 738 mmHg 97%
    06:00 -4°C° 0.3 mm 1 mps 737 mmHg 97%
    07:00 -4°C° 0.3 mm 1 mps 737 mmHg 97%
    08:00 -4°C° 0.3 mm 1 mps 737 mmHg 96%
    09:00 -4°C° 0.3 mm 1 mps 737 mmHg 95%
    10:00 -6°C° 0.3 mm 2 mps 737 mmHg 95%
    11:00 -6°C° 0.2 mm 2 mps 737 mmHg 94%
    12:00 -7°C° 0.2 mm 2 mps 737 mmHg 93%
    13:00 -9°C° 0.2 mm 3 mps 736 mmHg 92%
    14:00 -9°C° 0.1 mm 2 mps 737 mmHg 92%
    15:00 -10°C° 0.1 mm 2 mps 737 mmHg 93%
    16:00 -12°C° 0.1 mm 2 mps 737 mmHg 94%
    17:00 -13°C° 0 mm 2 mps 737 mmHg 95%
    18:00 -13°C° 0 mm 2 mps 737 mmHg 96%
    19:00 -12°C° 0 mm 1 mps 737 mmHg 97%
    20:00 -13°C° 0 mm 1 mps 737 mmHg 97%
    21:00 -14°C° 0 mm 1 mps 737 mmHg 97%
    22:00 -14°C° 0 mm 1 mps 737 mmHg 97%
    23:00 -15°C° 0 mm 1 mps 737 mmHg 97%

    Day after tomorrow, 21 January, Tuesday

    Time Temperature Precipitation Wind Pressure Humidity
    00:00 -15°C° 0 mm 0 mps 737 mmHg 97%
    01:00 -15°C° 0 mm 0 mps 737 mmHg 98%
    02:00 -16°C° 0 mm 0 mps 736 mmHg 98%
    03:00 -16°C° 0 mm 1 mps 736 mmHg 98%
    04:00 -16°C° 0 mm 1 mps 736 mmHg 98%
    05:00 -16°C° 0 mm 1 mps 736 mmHg 97%
    06:00 -16°C° 0 mm 1 mps 736 mmHg 97%
    07:00 -16°C° 0 mm 1 mps 735 mmHg 97%
    08:00 -17°C° 0 mm 2 mps 735 mmHg 96%
    09:00 -16°C° 0 mm 2 mps 735 mmHg 95%
    10:00 -16°C° 0 mm 2 mps 735 mmHg 93%
    11:00 -15°C° 0 mm 2 mps 734 mmHg 92%
    12:00 -13°C° 0 mm 2 mps 734 mmHg 91%
    13:00 -12°C° 0 mm 2 mps 733 mmHg 89%
    14:00 -12°C° 0 mm 2 mps 733 mmHg 91%
    15:00 -13°C° 0 mm 2 mps 733 mmHg 93%
    16:00 -14°C° 0 mm 2 mps 732 mmHg 95%
    17:00 -14°C° 0 mm 2 mps 732 mmHg 95%
    18:00 -15°C° 0 mm 3 mps 731 mmHg 95%
    19:00 -15°C° 0 mm 3 mps 730 mmHg 95%
    20:00 -14°C° 0 mm 3 mps 730 mmHg 95%
    21:00 -14°C° 0 mm 3 mps 729 mmHg 95%
    22:00 -14°C° 0 mm 3 mps 728 mmHg 94%
    23:00 -13°C° 0 mm 3 mps 727 mmHg 93%

    22 January, Wednesday

    Time Temperature Precipitation Wind Pressure Humidity
    00:00 -13°C° 0 mm 3 mps 726 mmHg 93%
    01:00 -14°C° 0 mm 4 mps 726 mmHg 92%
    02:00 -12°C° 0 mm 4 mps 725 mmHg 90%
    03:00 -11°C° 0 mm 4 mps 724 mmHg 89%
    04:00 -10°C° 0 mm 4 mps 723 mmHg 87%
    05:00 -10°C° 0.1 mm 4 mps 722 mmHg 88%
    06:00 -11°C° 0.1 mm 5 mps 721 mmHg 89%
    07:00 -10°C° 0.1 mm 5 mps 720 mmHg 90%
    08:00 -10°C° 0.1 mm 5 mps 719 mmHg 88%
    09:00 -8°C° 0.1 mm 5 mps 719 mmHg 86%
    10:00 -8°C° 0.1 mm 5 mps 718 mmHg 85%
    11:00 -8°C° 0 mm 4 mps 718 mmHg 86%
    12:00 -7°C° 0 mm 4 mps 717 mmHg 86%
    13:00 -7°C° 0 mm 4 mps 717 mmHg 87%
    14:00 -7°C° 0 mm 4 mps 716 mmHg 88%
    15:00 -6°C° 0 mm 3 mps 716 mmHg 88%
    16:00 -6°C° 0 mm 3 mps 715 mmHg 89%
    17:00 -6°C° 0 mm 3 mps 715 mmHg 89%
    18:00 -6°C° 0 mm 3 mps 715 mmHg 89%
    19:00 -6°C° 0 mm 3 mps 715 mmHg 90%
    20:00 -6°C° 0.1 mm 3 mps 714 mmHg 90%
    21:00 -6°C° 0.1 mm 3 mps 714 mmHg 90%
    22:00 -6°C° 0.1 mm 3 mps 714 mmHg 91%
    23:00 -7°C° 0 mm 4 mps 714 mmHg 91%

    23 January, Thursday

    Time Temperature Precipitation Wind Pressure Humidity
    00:00 -8°C° 0 mm 4 mps 714 mmHg 91%
    01:00 -8°C° 0 mm 4 mps 714 mmHg 90%
    02:00 -9°C° 0 mm 4 mps 714 mmHg 90%
    03:00 -9°C° 0 mm 4 mps 715 mmHg 89%
    04:00 -10°C° 0 mm 4 mps 715 mmHg 88%
    05:00 -10°C° 0 mm 4 mps 715 mmHg 88%
    06:00 -10°C° 0 mm 4 mps 716 mmHg 88%
    07:00 -12°C° 0 mm 5 mps 716 mmHg 88%
    08:00 -12°C° 0 mm 5 mps 717 mmHg 86%
    09:00 -12°C° 0 mm 5 mps 717 mmHg 85%
    10:00 -12°C° 0 mm 5 mps 718 mmHg 84%
    11:00 -11°C° 0 mm 5 mps 718 mmHg 82%
    12:00 -10°C° 0 mm 5 mps 719 mmHg 81%
    13:00 -10°C° 0 mm 5 mps 719 mmHg 80%
    14:00 -11°C° 0 mm 5 mps 720 mmHg 82%
    15:00 -10°C° 0 mm 4 mps 720 mmHg 85%
    16:00 -10°C° 0 mm 3 mps 720 mmHg 87%
    17:00 -10°C° 0 mm 3 mps 721 mmHg 88%
    18:00 -12°C° 0 mm 3 mps 721 mmHg 89%
    19:00 -12°C° 0 mm 3 mps 721 mmHg 90%
    20:00 -12°C° 0 mm 3 mps 722 mmHg 90%
    21:00 -13°C° 0 mm 3 mps 722 mmHg 91%
    22:00 -13°C° 0 mm 3 mps 723 mmHg 92%
    23:00 -12°C° 0 mm 2 mps 723 mmHg 92%

    24 January, Friday

    Time Temperature Precipitation Wind Pressure Humidity
    00:00 -13°C° 0 mm 2 mps 723 mmHg 93%
    01:00 -13°C° 0 mm 2 mps 724 mmHg 93%
    02:00 -13°C° 0 mm 2 mps 724 mmHg 93%
    03:00 -14°C° 0 mm 2 mps 724 mmHg 93%
    04:00 -14°C° 0 mm 2 mps 724 mmHg 93%
    05:00 -15°C° 0 mm 2 mps 724 mmHg 93%
    06:00 -16°C° 0 mm 3 mps 724 mmHg 92%
    07:00 -17°C° 0 mm 3 mps 724 mmHg 91%
    08:00 -16°C° 0 mm 3 mps 725 mmHg 89%
    09:00 -17°C° 0 mm 4 mps 725 mmHg 87%
    10:00 -17°C° 0 mm 4 mps 725 mmHg 85%
    11:00 -16°C° 0 mm 4 mps 725 mmHg 84%
    12:00 -16°C° 0 mm 4 mps 725 mmHg 83%
    13:00 -15°C° 0 mm 5 mps 725 mmHg 82%
    14:00 -16°C° 0 mm 4 mps 725 mmHg 83%
    15:00 -16°C° 0 mm 4 mps 725 mmHg 84%
    16:00 -16°C° 0 mm 4 mps 725 mmHg 85%
    17:00 -17°C° 0 mm 4 mps 725 mmHg 86%
    18:00 -17°C° 0 mm 4 mps 725 mmHg 87%
    19:00 -18°C° 0 mm 4 mps 725 mmHg 88%
    20:00 -17°C° 0 mm 4 mps 725 mmHg 89%
    21:00 -16°C° 0 mm 3 mps 726 mmHg 89%
    22:00 -16°C° 0 mm 3 mps 726 mmHg 90%
    23:00 -16°C° 0 mm 3 mps 726 mmHg 90%
    Show more